La Crosse, WI

6:44 PM CDT on April 29, 2017 (GMT -0500)
La Crosse Municipal

Weather History for KLSE - December, 2012

Change the Weather History Date:

Thursday, December 20, 2012

  Actual Average Record
Temperature  
Mean Temperature 27 °F 20 °F  
Max Temperature 33 °F 27 °F 54 °F (1894)
Min Temperature 21 °F 13 °F -24 °F (1983)
Degree Days  
Heating Degree Days 38 45  
Month to date heating degree days 650 836  
Since 1 July heating degree days 2139 2336  
Cooling Degree Days 0 0  
Month to date cooling degree days 0 0  
Year to date cooling degree days 1083 782  
Moisture  
Dew Point 25 °F    
Average Humidity 84    
Maximum Humidity 92    
Minimum Humidity 75    
Precipitation  
Precipitation 0.61 in 0.04 in 0.61 in (2012)
Month to date precipitation 1.78 0.96  
Year to date precipitation 26.48 32.66  
Snow  
Snow 5.80 in 0.40 in 6.50 in (2004)
Month to date snowfall 14.1 7.8  
Since 1 July snowfall 14.2 12.1  
Snow Depth 3.00 in    
Sea Level Pressure  
Sea Level Pressure 29.73 in    
Wind  
Wind Speed 21 mph (NNW)    
Max Wind Speed 32 mph    
Max Gust Speed 40 mph    
Visibility 2 miles    
Events Fog , Snow    
T = Trace of Precipitation, MM = Missing Value Source: NWS Daily Summary

Daily Weather History Graph

Daily Weather History Graph

Search for Another Location

Airport or City:

Trip Planner

Search our weather history database for the weather conditions in past years. The results will help you decide how hot, cold, wet, or windy it might be!

Date:

Astronomy

Dec. 20, 2012 Rise Set
Actual Time 7:35 AM CST 4:30 PM CST
Civil Twilight 7:02 AM CST 5:03 PM CST
Nautical Twilight 6:26 AM CST 5:39 PM CST
Astronomical Twilight 5:51 AM CST 6:14 PM CST
Moon 11:58 AM CST (12/20) 12:12 AM CST (12/20)
Length of Visible Light 10h 00m
Length of Day
8h 54m
First Quarter, 55% of the Moon is Illuminated
Dec 20
First Quarter
Dec 28
Full
Jan 4
Last Quarter
Jan 11
New
Jan 18
First Quarter

Hourly Weather History & Observations

Time (CST) Temp. Windchill Dew Point Humidity Pressure Visibility Wind Dir Wind Speed Gust Speed Precip Events Conditions
12:13 AM 32.0 °F 26.4 °F 28.4 °F 87% 29.88 in 1.8 mi NNE 5.8 mph - 0.00 in Snow Light Snow
12:24 AM 32.0 °F 26.4 °F 28.4 °F 87% 29.87 in 1.2 mi North 5.8 mph - 0.00 in Snow Light Snow
12:46 AM 30.2 °F 23.4 °F 28.4 °F 93% 29.87 in 1.2 mi North 6.9 mph - 0.01 in Snow Light Snow
12:53 AM 30.9 °F 25.2 °F 28.9 °F 92% 29.90 in 1.0 mi North 5.8 mph - 0.02 in Snow Light Snow
1:00 AM 30.2 °F 23.4 °F 28.4 °F 93% 29.87 in 1.2 mi North 6.9 mph - 0.00 in Snow Light Snow
1:35 AM 30.2 °F 22.6 °F 28.4 °F 93% 29.85 in 1.0 mi North 8.1 mph - 0.02 in Snow Light Snow
1:42 AM 30.2 °F 21.9 °F 28.4 °F 93% 29.84 in 0.8 mi NNE 9.2 mph - 0.03 in Snow Light Snow
1:53 AM 30.0 °F 21.7 °F 28.0 °F 92% 29.87 in 0.8 mi NNE 9.2 mph - 0.04 in Snow Light Snow
2:11 AM 30.2 °F 21.9 °F 28.4 °F 93% 29.82 in 1.0 mi NNE 9.2 mph - 0.02 in Snow Light Snow
2:53 AM 30.0 °F 23.2 °F 28.0 °F 92% 29.85 in 0.8 mi North 6.9 mph - 0.06 in Snow Light Snow
3:12 AM 30.2 °F 23.4 °F 28.4 °F 93% 29.81 in 0.8 mi NNE 6.9 mph - 0.02 in Snow Light Snow
3:38 AM 30.2 °F 21.9 °F 28.4 °F 93% 29.78 in 1.0 mi North 9.2 mph - 0.05 in Snow Light Snow
3:53 AM 30.0 °F 20.5 °F 27.0 °F 88% 29.80 in 1.0 mi North 11.5 mph - 0.06 in Snow Light Snow
4:53 AM 30.0 °F 19.1 °F 27.0 °F 88% 29.78 in 1.0 mi North 15.0 mph - 0.02 in Snow Light Snow
5:17 AM 30.2 °F 19.8 °F 26.6 °F 86% 29.73 in 0.8 mi North 13.8 mph 20.7 mph 0.01 in Snow Light Snow
5:33 AM 30.2 °F 19.3 °F 26.6 °F 86% 29.72 in 0.8 mi North 15.0 mph - 0.01 in Snow Light Snow
5:53 AM 30.0 °F 19.1 °F 27.0 °F 88% 29.75 in 0.8 mi North 15.0 mph 21.9 mph 0.01 in Snow Light Snow
5:57 AM 30.2 °F 19.3 °F 26.6 °F 86% 29.71 in 1.0 mi North 15.0 mph 21.9 mph 0.00 in Snow Light Snow
6:51 AM 30.2 °F 19.3 °F 26.6 °F 86% 29.68 in 2.0 mi North 15.0 mph - 0.00 in Snow Light Snow
6:53 AM 30.0 °F 18.7 °F 27.0 °F 88% 29.71 in 2.0 mi North 16.1 mph - 0.00 in Snow Light Snow
7:15 AM 30.2 °F 18.9 °F 26.6 °F 86% 29.67 in 1.8 mi North 16.1 mph - 0.00 in Snow Light Snow
7:25 AM 30.2 °F 19.8 °F 26.6 °F 86% 29.67 in 1.2 mi North 13.8 mph 24.2 mph 0.00 in Snow Light Snow
7:34 AM 30.2 °F 19.3 °F 26.6 °F 86% 29.66 in 1.0 mi North 15.0 mph - 0.00 in Snow Light Snow
7:48 AM 30.2 °F 17.8 °F 26.6 °F 86% 29.65 in 0.5 mi North 19.6 mph 27.6 mph 0.00 in Fog , Snow Snow
7:53 AM 30.0 °F 19.1 °F 27.0 °F 88% 29.69 in 0.5 mi North 15.0 mph 27.6 mph 0.01 in Fog , Snow Snow
8:38 AM 30.2 °F 18.5 °F 26.6 °F 86% 29.64 in 1.0 mi NNW 17.3 mph - 0.00 in Snow Light Snow
8:48 AM 30.2 °F 18.9 °F 26.6 °F 86% 29.64 in 1.0 mi NNW 16.1 mph - 0.00 in Snow Light Snow
8:53 AM 30.0 °F 17.5 °F 27.0 °F 88% 29.68 in 1.2 mi NNW 19.6 mph 25.3 mph 0.00 in Snow Light Snow
9:22 AM 30.2 °F 18.5 °F 26.6 °F 86% 29.63 in 2.0 mi NNW 17.3 mph - 0.00 in Snow Light Snow
9:31 AM 30.2 °F 18.1 °F 26.6 °F 86% 29.63 in 2.0 mi North 18.4 mph 25.3 mph 0.00 in Snow Light Snow
9:51 AM 30.2 °F 18.5 °F 26.6 °F 86% 29.63 in 3.0 mi North 17.3 mph 26.5 mph 0.00 in Snow Light Snow
9:53 AM 30.0 °F 18.7 °F 26.1 °F 85% 29.66 in 3.0 mi North 16.1 mph 26.5 mph 0.00 in Snow Light Snow
10:22 AM 30.2 °F 18.1 °F 26.6 °F 86% 29.62 in 2.0 mi North 18.4 mph 29.9 mph 0.00 in Snow Light Snow
10:53 AM 30.0 °F 16.3 °F 27.0 °F 88% 29.64 in 1.5 mi North 24.2 mph 34.5 mph 0.00 in Snow Light Snow
11:22 AM 30.2 °F 15.7 °F 26.6 °F 86% 29.58 in 0.8 mi NNW 27.6 mph 34.5 mph 0.00 in Snow Light Snow
11:48 AM 30.2 °F 15.2 °F 26.6 °F 86% 29.57 in 1.0 mi NNW 29.9 mph 38.0 mph 0.00 in Snow Light Snow
11:53 AM 30.0 °F 16.6 °F 26.1 °F 85% 29.60 in 1.0 mi North 23.0 mph 38.0 mph 0.00 in Snow Light Snow
12:53 PM 28.9 °F 14.0 °F 25.0 °F 85% 29.60 in 1.2 mi NNW 27.6 mph 34.5 mph 0.00 in Snow Light Snow
1:53 PM 28.9 °F 14.3 °F 25.0 °F 85% 29.60 in 1.2 mi NNW 26.5 mph 35.7 mph 0.00 in Snow Light Snow
2:41 PM 28.4 °F 13.3 °F 24.8 °F 86% 29.58 in 2.5 mi NNW 27.6 mph 33.4 mph 0.00 in Snow Light Snow
2:53 PM 28.9 °F 15.4 °F 24.1 °F 82% 29.62 in 4.0 mi NNW 21.9 mph 32.2 mph 0.00 in Snow Light Snow
3:50 PM 28.4 °F 14.4 °F 23.0 °F 80% 29.61 in 2.5 mi NNW 23.0 mph 36.8 mph 0.00 in Snow Light Snow
3:53 PM 28.0 °F 12.5 °F 23.0 °F 81% 29.65 in 3.0 mi NNW 28.8 mph 36.8 mph 0.00 in   Overcast
4:53 PM 28.0 °F 13.0 °F 23.0 °F 81% 29.70 in 2.5 mi NNW 26.5 mph 40.3 mph N/A Snow Light Snow
5:00 PM 28.4 °F 13.5 °F 23.0 °F 80% 29.66 in 3.0 mi NNW 26.5 mph 34.5 mph N/A Snow Light Snow
5:14 PM 28.4 °F 13.3 °F 23.0 °F 80% 29.67 in 2.5 mi NNW 27.6 mph 35.7 mph N/A Snow Light Snow
5:49 PM 26.6 °F 10.8 °F 23.0 °F 86% 29.69 in 1.8 mi NNW 27.6 mph 34.5 mph N/A Snow Light Snow
6:53 PM 26.1 °F 11.0 °F 21.9 °F 84% 29.76 in 2.5 mi NNW 24.2 mph 34.5 mph N/A Snow Light Snow
7:09 PM 26.6 °F 11.1 °F 21.2 °F 80% 29.72 in 3.0 mi NNW 26.5 mph 34.5 mph N/A Snow Light Snow
7:53 PM 25.0 °F 7.8 °F 21.0 °F 85% 29.78 in 4.0 mi NW 31.1 mph 38.0 mph N/A Snow Blowing Snow
8:53 PM 25.0 °F 9.5 °F 19.9 °F 81% 29.80 in 6.0 mi NW 24.2 mph 33.4 mph N/A   Overcast
9:43 PM 24.8 °F 9.0 °F 19.4 °F 80% 29.78 in 5.0 mi NW 25.3 mph 33.4 mph N/A   Overcast
9:53 PM 24.1 °F 7.7 °F 19.0 °F 81% 29.83 in 6.0 mi NW 26.5 mph 34.5 mph N/A Snow Blowing Snow
10:33 PM 23.0 °F 6.3 °F 17.6 °F 80% 29.80 in 7.0 mi NW 26.5 mph 34.5 mph N/A   Scattered Clouds
10:41 PM 23.0 °F 6.9 °F 17.6 °F 80% 29.80 in 8.0 mi NW 24.2 mph 34.5 mph N/A   Mostly Cloudy
10:53 PM 23.0 °F 6.6 °F 17.1 °F 78% 29.85 in 8.0 mi NW 25.3 mph 32.2 mph N/A   Mostly Cloudy
11:53 PM 21.0 °F 3.0 °F 16.0 °F 81% 29.90 in 7.0 mi NW 28.8 mph - N/A   Mostly Cloudy